ZHONGXING-6E

Last updated on Mon Oct 14 2024 00:02:42 GMT+0000 (Coordinated Universal Time)

1 58253U 23172A 24287.53330002 -.00000363 00000+0 00000+0 0 9998 2 58253 0.0391 84.1372 0002861 105.4722 140.4876 1.00269493 3525
UTC large
Height (km)
Speed (km/s)
/
Latitude / Longitude
Inclination (degrees)
Orbital Period (minutes)
Azimuth
Elevation
Range (km)
Doppler Factor

Next 0 passes for location: London (51.5072 / 0.1276)

Sorry there are no passes over London.